📊 Raw Sensor Data

Showing records 36651 to 36675 of 84,899 total

ID Distance (ft) Battery V Battery A Int Temp (°F) Int Humid (%) Ext Temp (°F) Solar V RSSI SNR Time Stamp
48261 15.0 3.94 0 103 44 92 5.10 -70 7 08/04/2025 04:00 PM
48260 15.0 3.94 0 103 44 94 5.20 -70 8 08/04/2025 03:45 PM
48259 15.0 3.94 0 103 43 92 5.10 -69 8 08/04/2025 03:30 PM
48258 15.0 3.94 0 102 42 93 5.10 -69 7 08/04/2025 03:15 PM
48257 15.0 3.94 0 102 42 88 5.10 -70 8 08/04/2025 03:00 PM
48256 15.0 3.94 0 101 41 88 5.10 -68 7 08/04/2025 02:45 PM
48255 15.0 4.00 0 99 41 90 5.10 -69 8 08/04/2025 02:30 PM
48254 15.0 3.93 0 98 40 88 5.20 -69 8 08/04/2025 02:15 PM
48253 15.0 3.93 0 95 41 87 5.10 -69 8 08/04/2025 02:00 PM
48252 15.0 3.93 0 93 42 83 5.10 -68 8 08/04/2025 01:45 PM
48251 15.0 3.93 0 92 42 83 5.10 -70 8 08/04/2025 01:30 PM
48250 15.0 3.93 0 90 43 84 5.10 -69 7 08/04/2025 01:15 PM
48249 15.0 3.93 0 90 42 81 5.10 -69 7 08/04/2025 01:00 PM
48248 15.0 4.03 0 89 42 80 5.10 -70 8 08/04/2025 12:45 PM
48247 15.0 3.93 0 88 42 83 5.10 -70 8 08/04/2025 12:30 PM
48246 15.0 3.93 0 86 43 82 5.10 -69 8 08/04/2025 12:15 PM
48245 15.1 3.93 0 85 42 84 5.10 -70 8 08/04/2025 12:00 PM
48244 15.1 3.98 0 84 42 84 5.10 -70 8 08/04/2025 11:45 AM
48243 15.1 3.93 0 83 42 84 5.10 -69 7 08/04/2025 11:30 AM
48242 15.1 3.93 0 81 42 81 5.10 -69 8 08/04/2025 11:15 AM
48241 15.1 4.12 0 80 43 82 5.10 -70 8 08/04/2025 11:00 AM
48240 15.1 3.93 0 78 43 75 5.10 -68 7 08/04/2025 10:45 AM
48239 15.2 3.93 0 77 42 79 5.10 -70 8 08/04/2025 10:30 AM
48238 15.1 3.93 0 76 43 75 5.10 -68 8 08/04/2025 10:15 AM
48237 15.1 3.93 0 75 43 74 5.10 -68 7 08/04/2025 10:00 AM